Fergus Falls, MN

12:39 PM CST on December 15, 2019 (GMT -0600)
Fergus Falls Municipal-Mickelson

Weather History for KFFM - October, 2019

Change the Weather History Date:

Sunday, October 6, 2019

  Actual Average Record
Temperature  
Mean Temperature 51 °F -  
Max Temperature 60 °F 60 °F 86 °F (1970)
Min Temperature 42 °F 37 °F 23 °F (2001)
Degree Days  
Heating Degree Days 14    
Growing Degree Days 1 (Base 50)    
Moisture  
Dew Point 41 °F    
Average Humidity 71    
Maximum Humidity 87    
Minimum Humidity 48    
Precipitation  
Precipitation 0.00 in - - ()
Sea Level Pressure  
Sea Level Pressure 29.89 in    
Wind  
Wind Speed 12 mph ()    
Max Wind Speed 28 mph    
Max Gust Speed 34 mph    
Visibility 10.0 miles    
Events Rain    
Averages and records for this station are not official NWS values.
T = Trace of Precipitation, MM = Missing Value Source: Averaged Metar Reports

Daily Weather History Graph

Daily Weather History Graph

Search for Another Location

Airport or City:

Astronomy

Oct. 06, 2019 Rise Set
Actual Time 7:29 AM CDT 6:55 PM CDT
Civil Twilight 6:59 AM CDT 7:25 PM CDT
Nautical Twilight 6:24 AM CDT 7:59 PM CDT
Astronomical Twilight 5:49 AM CDT 8:35 PM CDT
Moon 4:00 PM CDT (10/6) 12:02 AM CDT (10/6)
Length of Visible Light 12h 25m
Length of Day
11h 25m
First Quarter, 60% of the Moon is Illuminated
Oct 6
First Quarter
Oct 13
Full
Oct 21
Last Quarter
Oct 27
New
Nov 4
First Quarter

Hourly Weather History & Observations

Time (CDT) Temp. Windchill Dew Point Humidity Pressure Visibility Wind Dir Wind Speed Gust Speed Precip Events Conditions
12:15 AM 48.2 °F - 42.8 °F 82% 29.76 in 10.0 mi West 10.4 mph - N/A   Mostly Cloudy
12:16 AM 48.2 °F - 42.8 °F 82% 29.76 in 10.0 mi West 10.4 mph - N/A   Mostly Cloudy
12:35 AM 48.2 °F - 42.8 °F 82% 29.76 in 10.0 mi West 10.4 mph - N/A   Mostly Cloudy
12:39 AM 48.2 °F - 42.8 °F 82% 29.76 in 10.0 mi West 10.4 mph - N/A   Overcast
12:57 AM 46.4 °F 41.5 °F 42.8 °F 87% 29.76 in 10.0 mi West 10.4 mph - N/A   Scattered Clouds
1:15 AM 46.4 °F 41.5 °F 41.0 °F 81% 29.77 in 10.0 mi West 10.4 mph - N/A   Clear
1:35 AM 46.4 °F 41.5 °F 41.0 °F 81% 29.77 in 10.0 mi West 10.4 mph - N/A   Clear
1:55 AM 44.6 °F 39.2 °F 39.2 °F 81% 29.77 in 10.0 mi West 10.4 mph - N/A   Clear
1:56 AM 44.6 °F 39.2 °F 39.2 °F 81% 29.77 in 10.0 mi West 10.4 mph - N/A   Clear
2:18 AM 44.6 °F 39.2 °F 39.2 °F 81% 29.78 in 10.0 mi West 10.4 mph - N/A   Clear
2:37 AM 44.6 °F 39.2 °F 39.2 °F 81% 29.78 in 10.0 mi West 10.4 mph - N/A   Clear
2:55 AM 44.6 °F 39.7 °F 39.2 °F 81% 29.79 in 10.0 mi West 9.2 mph - N/A   Clear
3:15 AM 44.6 °F 39.2 °F 39.2 °F 81% 29.79 in 10.0 mi West 10.4 mph - N/A   Clear
3:16 AM 44.6 °F 39.2 °F 39.2 °F 81% 29.79 in 10.0 mi West 10.4 mph - N/A   Clear
3:35 AM 44.6 °F 40.2 °F 39.2 °F 81% 29.80 in 10.0 mi West 8.1 mph - N/A   Clear
3:36 AM 44.6 °F 40.2 °F 39.2 °F 81% 29.80 in 10.0 mi West 8.1 mph - N/A   Clear
3:58 AM 42.8 °F 37.5 °F 39.2 °F 87% 29.80 in 10.0 mi West 9.2 mph - N/A   Clear
4:17 AM 42.8 °F 38.0 °F 39.2 °F 87% 29.81 in 10.0 mi West 8.1 mph - N/A   Clear
4:36 AM 42.8 °F 38.0 °F 39.2 °F 87% 29.81 in 10.0 mi West 8.1 mph - N/A   Clear
4:55 AM 42.8 °F 38.0 °F 37.4 °F 81% 29.82 in 10.0 mi West 8.1 mph - N/A   Clear
5:15 AM 42.8 °F 38.0 °F 37.4 °F 81% 29.82 in 10.0 mi West 8.1 mph - N/A   Clear
5:19 AM 42.8 °F 37.5 °F 37.4 °F 81% 29.82 in 10.0 mi West 9.2 mph - N/A   Clear
5:37 AM 42.8 °F 37.5 °F 37.4 °F 81% 29.83 in 10.0 mi West 9.2 mph - N/A   Clear
5:56 AM 42.8 °F 37.0 °F 37.4 °F 81% 29.83 in 10.0 mi West 10.4 mph - N/A   Scattered Clouds
6:15 AM 44.6 °F 39.2 °F 37.4 °F 76% 29.83 in 10.0 mi West 10.4 mph - N/A   Mostly Cloudy
6:16 AM 44.6 °F 39.2 °F 37.4 °F 76% 29.84 in 10.0 mi West 10.4 mph - N/A   Mostly Cloudy
6:35 AM 44.6 °F 39.7 °F 39.2 °F 81% 29.83 in 10.0 mi West 9.2 mph - N/A   Mostly Cloudy
6:36 AM 44.6 °F 39.7 °F 39.2 °F 81% 29.83 in 10.0 mi West 9.2 mph - N/A   Mostly Cloudy
6:59 AM 44.6 °F 39.7 °F 39.2 °F 81% 29.83 in 10.0 mi West 9.2 mph - N/A   Scattered Clouds
7:16 AM 44.6 °F 40.2 °F 39.2 °F 81% 29.84 in 10.0 mi WSW 8.1 mph - N/A   Scattered Clouds
7:35 AM 42.8 °F 37.5 °F 39.2 °F 87% 29.85 in 10.0 mi WSW 9.2 mph - N/A   Clear
7:55 AM 44.6 °F 39.2 °F 39.2 °F 81% 29.86 in 10.0 mi West 10.4 mph - N/A   Clear
7:56 AM 44.6 °F 39.2 °F 39.2 °F 81% 29.86 in 10.0 mi West 10.4 mph - N/A   Clear
8:15 AM 44.6 °F 38.8 °F 39.2 °F 81% 29.86 in 10.0 mi West 11.5 mph 16.1 mph N/A   Scattered Clouds
8:19 AM 44.6 °F 38.4 °F 39.2 °F 81% 29.86 in 10.0 mi West 12.7 mph 16.1 mph N/A   Scattered Clouds
8:38 AM 44.6 °F 38.8 °F 39.2 °F 81% 29.87 in 10.0 mi West 11.5 mph 17.3 mph N/A   Scattered Clouds
8:55 AM 46.4 °F 40.7 °F 39.2 °F 76% 29.87 in 10.0 mi West 12.7 mph 17.3 mph N/A   Scattered Clouds
9:15 AM 46.4 °F 40.1 °F 39.2 °F 76% 29.87 in 10.0 mi West 15.0 mph - N/A   Mostly Cloudy
9:16 AM 46.4 °F 39.8 °F 39.2 °F 76% 29.87 in 10.0 mi West 16.1 mph - N/A   Mostly Cloudy
9:35 AM 46.4 °F 39.5 °F 39.2 °F 76% 29.88 in 10.0 mi West 17.3 mph 21.9 mph N/A   Overcast
9:36 AM 46.4 °F 39.0 °F 39.2 °F 76% 29.88 in 10.0 mi West 19.6 mph 24.2 mph N/A   Overcast
9:58 AM 48.2 °F - 39.2 °F 71% 29.89 in 10.0 mi West 12.7 mph 21.9 mph N/A   Mostly Cloudy
10:17 AM 50.0 °F - 42.8 °F 76% 29.90 in 10.0 mi West 16.1 mph 19.6 mph N/A   Scattered Clouds
10:36 AM 51.8 °F - 42.8 °F 71% 29.90 in 10.0 mi WNW 18.4 mph 25.3 mph N/A   Clear
10:55 AM 53.6 °F - 42.8 °F 67% 29.90 in 10.0 mi West 20.7 mph 26.5 mph N/A   Clear
10:56 AM 53.6 °F - 42.8 °F 67% 29.90 in 10.0 mi West 20.7 mph 27.6 mph N/A   Clear
11:15 AM 53.6 °F - 42.8 °F 67% 29.91 in 10.0 mi West 18.4 mph 25.3 mph N/A   Scattered Clouds
11:20 AM 55.4 °F - 42.8 °F 63% 29.91 in 10.0 mi West 18.4 mph 25.3 mph N/A   Scattered Clouds
11:37 AM 55.4 °F - 42.8 °F 63% 29.91 in 10.0 mi WNW 24.2 mph 31.1 mph N/A   Scattered Clouds
11:55 AM 55.4 °F - 42.8 °F 63% 29.91 in 10.0 mi West 23.0 mph 32.2 mph N/A   Scattered Clouds
12:15 PM 55.4 °F - 42.8 °F 63% 29.91 in 10.0 mi West 26.5 mph 32.2 mph N/A   Mostly Cloudy
12:35 PM 55.4 °F - 44.6 °F 67% 29.91 in 10.0 mi West 21.9 mph 27.6 mph N/A   Overcast
12:55 PM 55.4 °F - 42.8 °F 63% 29.92 in 10.0 mi North - - N/A   Mostly Cloudy
12:56 PM 55.4 °F - 42.8 °F 63% 29.91 in 10.0 mi West 19.6 mph 28.8 mph N/A   Unknown
1:18 PM 57.2 °F - 42.8 °F 59% 29.91 in 10.0 mi WNW 21.9 mph 33.4 mph N/A   Scattered Clouds
1:36 PM 59.0 °F - 42.8 °F 55% 29.91 in 10.0 mi West 21.9 mph 32.2 mph N/A   Scattered Clouds
1:55 PM 59.0 °F - 42.8 °F 55% 29.90 in 10.0 mi West 24.2 mph 28.8 mph N/A   Mostly Cloudy
1:56 PM 59.0 °F - 42.8 °F 55% 29.90 in 10.0 mi West 24.2 mph - N/A   Mostly Cloudy
2:15 PM 59.0 °F - 41.0 °F 51% 29.90 in 10.0 mi West 23.0 mph 32.2 mph N/A   Mostly Cloudy
2:16 PM 59.0 °F - 41.0 °F 51% 29.90 in 10.0 mi West 25.3 mph 33.4 mph N/A   Mostly Cloudy
2:35 PM 59.0 °F - 41.0 °F 51% 29.90 in 10.0 mi WNW 27.6 mph 33.4 mph N/A   Mostly Cloudy
2:40 PM 59.0 °F - 39.2 °F 48% 29.90 in 10.0 mi West 24.2 mph 33.4 mph N/A   Mostly Cloudy
2:57 PM 57.2 °F - 39.2 °F 51% 29.91 in 10.0 mi WNW 25.3 mph 34.5 mph N/A   Mostly Cloudy
3:15 PM 59.0 °F - 41.0 °F 51% 29.91 in 10.0 mi WNW 25.3 mph 29.9 mph N/A   Mostly Cloudy
3:35 PM 57.2 °F - 39.2 °F 51% 29.91 in 10.0 mi WNW 20.7 mph 31.1 mph N/A   Scattered Clouds
3:36 PM 57.2 °F - 41.0 °F 55% 29.91 in 10.0 mi WNW 21.9 mph 31.1 mph N/A   Scattered Clouds
3:55 PM 60.8 °F - 41.0 °F 48% 29.91 in 10.0 mi West 19.6 mph 31.1 mph N/A   Scattered Clouds
3:56 PM 60.8 °F - 41.0 °F 48% 29.91 in 10.0 mi West 21.9 mph 31.1 mph N/A   Scattered Clouds
4:18 PM 60.8 °F - 41.0 °F 48% 29.91 in 10.0 mi WNW 21.9 mph 32.2 mph N/A   Scattered Clouds
4:37 PM 59.0 °F - 39.2 °F 48% 29.91 in 10.0 mi West 19.6 mph 28.8 mph N/A   Mostly Cloudy
4:56 PM 59.0 °F - 39.2 °F 48% 29.91 in 10.0 mi West 24.2 mph 34.5 mph N/A   Overcast
5:15 PM 57.2 °F - 39.2 °F 51% 29.92 in 10.0 mi West 20.7 mph 28.8 mph N/A   Mostly Cloudy
5:35 PM 57.2 °F - 39.2 °F 51% 29.93 in 10.0 mi WNW 23.0 mph 28.8 mph N/A   Scattered Clouds
5:39 PM 57.2 °F - 39.2 °F 51% 29.93 in 10.0 mi WNW 24.2 mph 31.1 mph N/A   Mostly Cloudy
5:57 PM 53.6 °F - 42.8 °F 67% 29.94 in 7.0 mi NW 13.8 mph 27.6 mph N/A Rain Light Rain
6:15 PM 51.8 °F - 44.6 °F 76% 29.94 in 10.0 mi WNW 10.4 mph - N/A   Scattered Clouds
6:35 PM 51.8 °F - 44.6 °F 76% 29.95 in 10.0 mi West 4.6 mph - N/A   Mostly Cloudy
6:36 PM 51.8 °F - 44.6 °F 76% 29.95 in 10.0 mi West 4.6 mph - N/A   Mostly Cloudy
6:55 PM 51.8 °F - 42.8 °F 71% 29.95 in 10.0 mi WNW 3.5 mph - N/A   Overcast
6:56 PM 51.8 °F - 42.8 °F 71% 29.95 in 10.0 mi WNW 3.5 mph - N/A   Overcast
7:18 PM 51.8 °F - 42.8 °F 71% 29.95 in 10.0 mi WNW 4.6 mph - N/A   Overcast
7:36 PM 53.6 °F - 42.8 °F 67% 29.96 in 10.0 mi WNW 9.2 mph - N/A   Overcast
7:56 PM 53.6 °F - 42.8 °F 67% 29.96 in 10.0 mi WNW 9.2 mph - N/A   Overcast
8:15 PM 51.8 °F - 42.8 °F 71% 29.97 in 10.0 mi West 8.1 mph 17.3 mph N/A Rain Light Rain
8:16 PM 51.8 °F - 42.8 °F 71% 29.97 in 10.0 mi West 8.1 mph 12.7 mph N/A Rain Light Rain
8:35 PM 51.8 °F - 42.8 °F 71% 29.97 in 10.0 mi WNW 6.9 mph - N/A   Overcast
8:57 PM 50.0 °F - 42.8 °F 76% 29.97 in 10.0 mi West 6.9 mph - N/A   Overcast
9:16 PM 48.2 °F - 41.0 °F 76% 29.98 in 10.0 mi West 5.8 mph - N/A   Scattered Clouds
9:35 PM 48.2 °F - 41.0 °F 76% 29.98 in 10.0 mi West 8.1 mph - N/A   Scattered Clouds
9:36 PM 48.2 °F - 41.0 °F 76% 29.98 in 10.0 mi West 8.1 mph - N/A   Clear
9:55 PM 46.4 °F 43.5 °F 39.2 °F 76% 29.99 in 10.0 mi West 5.8 mph - N/A   Scattered Clouds
9:56 PM 46.4 °F 44.3 °F 39.2 °F 76% 29.99 in 10.0 mi West 4.6 mph - N/A   Scattered Clouds
10:19 PM 48.2 °F - 41.0 °F 76% 30.00 in 10.0 mi West 8.1 mph - N/A   Mostly Cloudy
10:36 PM 46.4 °F 44.3 °F 39.2 °F 76% 30.01 in 10.0 mi West 4.6 mph - N/A   Scattered Clouds
10:56 PM 44.6 °F 40.7 °F 39.2 °F 81% 30.01 in 10.0 mi West 6.9 mph - N/A   Clear
11:15 PM 46.4 °F 41.9 °F 39.2 °F 76% 30.01 in 10.0 mi West 9.2 mph - N/A   Clear
11:16 PM 46.4 °F 41.9 °F 39.2 °F 76% 30.01 in 10.0 mi West 9.2 mph - N/A   Clear
11:35 PM 46.4 °F 42.9 °F 39.2 °F 76% 30.03 in 10.0 mi West 6.9 mph - N/A   Clear
11:39 PM 44.6 °F 40.7 °F 39.2 °F 81% 30.03 in 10.0 mi West 6.9 mph - N/A   Clear
11:58 PM 44.6 °F 39.7 °F 39.2 °F 81% 30.03 in 10.0 mi West 9.2 mph - N/A   Clear